AirNav   Duncan Aviation - Near you to keep you flying
 
 1524 users online  

KCKZ Pennridge Airport
Perkasie, Pennsylvania, USA

GOING TO PERKASIE?


FAA INFORMATION EFFECTIVE 16 JUNE 2022

Location

FAA Identifier: CKZ
Lat/Long: 40-23-21.1000N 075-17-25.7000W
40-23.351667N 075-17.428333W
40.3891944,-75.2904722
(estimated)
Elevation: 567.6 ft. / 173.0 m (surveyed)
Variation: 12W (2005)
From city: 1 mile N of PERKASIE, PA
Time zone: UTC -4 (UTC -5 during Standard Time)
Zip code: 18944

Airport Operations

Airport use: Open to the public
Activation date: 04/1969
Control tower: no
ARTCC: NEW YORK CENTER
FSS: WILLIAMSPORT FLIGHT SERVICE STATION
NOTAMs facility: IPT (NOTAM-D service available)
Attendance: 0800-1600
Pattern altitude: TPA FOR LIGHT ACFT 800 FT AGL; TPA FOR TURBO PROP & JETS 1200 FT AGL.
Wind indicator: lighted
Segmented circle: no
Lights: ACTIVATE PAPI RY 08/26; MIRL RY 08/26 - CTAF.
Beacon: white-green (lighted land airport)
Operates sunset to sunrise.

Airport Communications

CTAF/UNICOM: 123.0
WX AWOS-3: 126.325 (215-257-7291)
PHILADELPHIA APPROACH: 123.8
PHILADELPHIA DEPARTURE: 123.8
CLEARANCE DELIVERY: 118.55
WX AWOS-3 at UKT (5 nm NW): 119.475 (215-538-7610)
WX ASOS at DYL (8 nm SE): 118.875 (215-345-0392)
WX AWOS-3 at XLL (14 nm NW): 127.875 (610-231-3111)
WX ASOS at PTW (15 nm SW): 119.425 (610-495-0823)
WX AWOS-3 at LOM (15 nm S): 118.925 (215-646-1068)
WX ASOS at ABE (17 nm NW): 126.975 (610-264-1765)
WX AWOS-3 at N40 (18 nm NE): 121.725
  • CLEARANCE DELIVERY PHILADELPHIA APCH TF 800-354-9884.

Airport Services

Fuel available: 100LL JET-A
Parking: hangars and tiedowns
Airframe service: MAJOR
Powerplant service: MAJOR
Bottled oxygen: NONE
Bulk oxygen: NONE

Runway Information

Runway 8/26

Dimensions: 4211 x 100 ft. / 1284 x 30 m
Surface: asphalt/porous friction courses, in good condition
Weight bearing capacity: 
Double wheel: 26.0
Runway edge lights: medium intensity
Operational restrictions: RY 08/26 CLSD TO TOUCH & GO LDGS.
RUNWAY 8  RUNWAY 26
Latitude: 40-23.230958N40-23.471240N
Longitude: 075-17.853907W075-17.003272W
Elevation: 519.8 ft.567.6 ft.
Traffic pattern: leftleft
Runway heading: 082 magnetic, 070 true262 magnetic, 250 true
Displaced threshold: 266 ft.351 ft.
Markings: nonprecision, in good conditionnonprecision, in good condition
Visual slope indicator: 2-light PAPI on left (3.78 degrees glide path)2-light PAPI on left (4.00 degrees glide path)
Runway end identifier lights: nono
Touchdown point: yes, no lightsyes, no lights
Obstructions: 41 ft. trees, 325 ft. from runway, 219 ft. right of centerline, 3:1 slope to clear
APCH RATIO 14:1 TO DTHR.
46 ft. trees, 566 ft. from runway, 288 ft. right of centerline, 8:1 slope to clear
10 FT BLAST FENCE AT RWY END. 40 FT TREES, 17 FT FM RWY END, 195 FT RIGHT.

Airport Ownership and Management from official FAA records

Ownership: Privately-owned
Owner: PENNRIDGE DEVELOPMENT ENT INC
1100 RIDGE ROAD
PERKASIE, PA 18944
Phone 215-257-0166
Manager: IYAN BASS
1100 N RIDGE ROAD
PERKASIE, PA 18944
Phone 215-592-2704

Airport Operational Statistics

Aircraft based on the field: 42
Single engine airplanes: 37
Multi engine airplanes: 3
Jet airplanes: 2
    
Aircraft operations: avg 60/day *
68% local general aviation
32% transient general aviation
<1% military
* for 12-month period ending 27 July 2021

Additional Remarks

OCCASIONAL DEER AND WILD TURKEYS INVOF RWY.
SKYDIVING ACT DLY DAWN TO DUSK.
FOR CD CTC PHILADELPHIA APCH AT 800-354-9884.

Instrument Procedures

NOTE: All procedures below are presented as PDF files. If you need a reader for these files, you should download the free Adobe Reader.

NOT FOR NAVIGATION. Please procure official charts for flight.
FAA instrument procedures published for use from 16 June 2022 at 0901Z to 14 July 2022 at 0900z.

 
IAPs - Instrument Approach Procedures
RNAV (GPS) RWY 08   download (176KB)
RNAV (GPS) RWY 26   download (165KB)
NOTE: Special Take-Off Minimums/Departure Procedures apply   download (488KB)

Other nearby airports with instrument procedures:

KUKT - Quakertown Airport (5 nm NW)
KDYL - Doylestown Airport (8 nm SE)
KXLL - Allentown Queen City Municipal Airport (14 nm NW)
KPTW - Heritage Field Airport (15 nm SW)
KLOM - Wings Field Airport (15 nm S)
N85 - Alexandria Airport (17 nm NE)
KABE - Lehigh Valley International Airport (17 nm NW)
N40 - Sky Manor Airport (18 nm NE)
N47 - Pottstown Municipal Airport (19 nm SW)
 
Loc | Ops | Rwys | IFR | FBO | Links
Com | Nav | Svcs | Stats | Notes
Area around KCKZ (Pennridge Airport)
 
Road maps at: MapQuest Bing Google
 
Aerial photo
WARNING: Photo may not be current or correct
Aerial photo of KCKZ (Pennridge Airport)
Photo by Ed Figuli
Photo taken 25-Jul-2020
looking west at 1000 feet above the ground.

Do you have a better or more recent aerial photo of Pennridge Airport that you would like to share? If so, please send us your photo.

 
Sectional chart

 
Airport distance calculator
Flying to Pennridge Airport? Find the distance to fly.

From to KCKZ

Sunrise and sunset
Times for 28-Jun-2022
 Local
(UTC-4)
 Zulu
(UTC)
Morning civil twilight05:0109:01
Sunrise05:3409:34
Sunset20:3400:34
Evening civil twilight21:0701:07

Current date and time
Zulu (UTC)  28-Jun-2022 13:59:43
Local (UTC-4)  28-Jun-2022 09:59:43
 
METAR
KCKZ 281355Z AUTO 35005KT 10SM CLR 20/10 A3020 RMK AO2
KUKT 
5nm NW 
281335Z AUTO 35007KT 320V030 10SM CLR 20/11 A3019 RMK A01
KDYL 
9nm SE 
281354Z AUTO 02007KT 10SM CLR 22/10 A3017 RMK AO2 SLP213 T02170100
KXLL 
14nm NW 
281335Z AUTO 35005KT 10SM CLR 20/11 A3020 RMK AO2
KPTW 
15nm SW 
281354Z AUTO 02007KT 10SM CLR 21/11 A3020 RMK AO2 SLP223 T02060106
KLOM 
15nm S 
281335Z AUTO 35004KT 10SM CLR 21/12 A3019 RMK AO2 T02090119
KABE 
17nm NW 
281351Z 01007KT 10SM CLR 19/11 A3018 RMK AO2 SLP218 T01940106
TAF
KABE 
17nm NW 
281120Z 2812/2912 32008KT P6SM SKC FM281600 30008KT P6SM SCT250 FM282300 VRB02KT P6SM SKC
NOTAMs
Click for the latest NOTAMs
NOTAMs are issued by the DoD/FAA and will open in a separate window not controlled by AirNav.

 

 
 

FBO, Fuel Providers, and Aircraft Ground Support

  
 Business Name 
 
 Contact 
 
 Services / Description 
 
Fuel Prices
 
Comments
  
Pennridge Airport 215-257-0166
no information available

If you are affiliated with Pennridge Airport and would like to show here your services, contact info, web link, logo, and more, click here
100LL Jet A
FS $6.84 $7.16 
SS $6.74 --- 
 Updated 27-Jun-2022
 
   write
FS=Full service
SS=Self service
Update Fuel Prices
 

Would you like to see your business listed on this page?

 If your business provides an interesting product or service to pilots, flight crews, aircraft, or users of the Pennridge Airport, you should consider listing it here.  To start the listing process, click on the button below
 
Add a business
 

Other Pages about Pennridge Airport

www.pennridgeairport.com
 
Update a link
 
Copyright © AirNav, LLC. All rights reserved. Privacy Policy  Contact